Theta_e
331 331 331 330 328 326 325 324 323 323 322 320 318 317 316 314 313 313 312 311 307 305 303 301 300 300 299 299 300 299 299 299
327 327 327 326 324 323 322 321 321 320 319 318 316 315 314 312 311 311 311 307 302 300 299 298 298 297 297 297 297 296 296 299
324 324 322 321 321 320 320 319 319 318 317 315 314 312 311 310 309 309 309 304 301 299 297 296 295 295 296 295 295 294 295 298
321 319 319 318 318 318 317 317 317 317 315 311 310 309 309 308 308 307 305 303 299 297 294 293 292 294 295 298 297 294 297 298
316 316 315 316 316 316 314 314 314 311 309 309 308 307 307 307 307 306 304 300 297 294 292 291 289 290 294 295 297 293 293 293
312 313 313 314 314 313 312 311 309 308 307 306 306 306 305 305 304 303 302 300 297 294 292 289 287 290 294 294 293 289 289 292
309 310 309 308 309 309 308 307 307 305 304 304 304 304 303 302 301 300 300 299 297 296 292 288 286 286 293 293 290 288 289 291
303 305 306 305 306 306 304 303 303 302 302 302 303 302 301 300 299 298 297 297 296 296 291 288 290 285 291 291 290 287 286 287
304 304 302 303 304 303 301 301 300 301 302 302 301 299 296 292 290 290 295 295 295 292 290 288 286 286 285 290 291 286 286 287
301 300 300 302 302 301 300 299 301 302 301 295 292 291 291 289 287 288 288 290 294 292 288 284 283 283 288 288 289 290 290 285
301 300 300 300 300 301 298 299 300 299 294 291 288 288 287 286 285 283 285 286 285 283 282 280 281 283 282 287 288 290 291 287
301 300 300 299 300 300 299 300 298 295 292 290 287 285 284 283 283 283 282 282 281 282 281 279 280 281 282 284 285 284 288 288
299 299 299 299 300 299 300 300 297 294 293 291 288 286 284 283 283 282 283 282 282 280 279 280 280 281 282 287 287 285 286 288
297 298 298 298 299 299 299 299 297 294 291 289 287 285 284 283 283 281 287 287 288 287 287 284 283 286 289 290 290 289 289 289
294 294 294 294 294 294 294 296 297 296 292 289 288 286 284 282 281 281 281 283 288 288 287 288 288 288 289 289 289 289 288 287
294 294 293 293 293 292 293 293 292 292 291 292 289 287 285 284 283 282 281 282 281 282 286 287 288 289 289 289 289 288 285 286
294 293 293 293 292 290 292 292 290 289 289 288 287 286 286 286 286 284 284 283 281 281 282 285 287 288 288 288 288 284 283 283
291 289 290 290 290 290 292 290 289 288 289 289 288 286 285 285 285 285 283 282 281 281 281 281 282 284 282 282 283 283 283 283
291 291 290 290 290 292 291 289 288 288 287 287 288 286 285 284 284 283 283 283 281 281 281 283 283 282 281 281 281 281 281 282
289 289 288 288 289 289 290 290 288 287 286 285 285 284 284 283 282 283 282 282 282 281 281 283 283 281 281 281 281 281 281 281
Wind_Speed
24 24 23 23 23 20 18 18 17 17 16 19 17 14 14 11 9 8 8 11 12 12 11 11 10 8 7 6 5 5 5 5
23 21 22 22 22 22 21 19 17 16 17 18 18 14 12 10 8 9 12 12 13 12 11 10 8 7 7 5 5 5 5 5
24 23 21 22 23 22 20 20 18 17 18 18 15 13 13 13 12 12 12 13 12 11 10 8 6 7 6 5 5 6 6 7
23 25 27 25 24 22 21 20 18 18 17 16 16 15 14 13 11 12 12 12 11 10 9 8 7 7 14 14 9 6 6 6
27 27 27 24 24 22 22 20 19 18 18 16 15 15 14 12 11 12 12 11 9 8 8 8 8 6 14 13 13 5 5 5
27 26 26 23 23 22 21 19 18 18 17 16 15 14 13 11 11 11 10 8 8 7 8 7 6 7 14 14 12 5 5 5
27 26 26 24 22 21 21 19 18 18 15 15 14 13 12 11 11 9 7 8 6 7 7 7 6 6 13 14 10 6 7 7
25 25 23 22 20 20 21 19 18 17 15 14 13 12 11 10 8 7 4 6 6 8 8 6 11 7 13 13 11 4 6 5
25 23 20 18 18 22 20 18 17 15 14 14 13 12 12 10 8 4 5 6 9 9 7 5 6 7 6 14 14 5 5 5
24 21 18 16 16 19 19 18 15 16 15 15 13 11 8 7 10 8 9 9 10 8 6 4 4 6 12 12 15 13 10 4
17 21 20 16 14 16 18 15 15 16 16 13 12 12 9 8 9 8 8 8 7 5 5 4 4 4 5 15 13 14 12 5
16 19 19 15 13 14 15 15 15 16 15 13 11 12 9 9 7 6 6 5 5 5 4 4 4 5 6 6 6 6 11 8
15 16 16 15 13 12 13 14 14 13 13 12 11 8 9 9 7 5 7 4 4 5 3 2 4 5 5 6 4 5 5 5
14 15 15 13 11 11 10 11 13 12 12 9 8 7 5 6 7 5 9 9 9 7 5 3 2 3 10 12 11 13 14 10
16 15 14 13 12 11 9 10 11 10 10 9 7 7 6 6 4 5 5 5 6 6 8 10 7 5 9 12 11 12 12 8
14 14 13 13 12 10 8 12 13 11 8 10 6 5 5 5 4 4 4 4 3 3 7 4 8 8 12 12 11 8 6 7
15 14 12 12 11 8 8 10 11 11 9 6 5 5 5 6 5 4 4 4 4 3 4 7 7 11 12 13 10 4 4 4
12 9 8 9 9 4 7 8 8 7 7 11 8 5 5 5 5 5 4 4 5 5 4 3 3 6 5 5 5 4 4 4
11 9 7 7 5 6 7 9 10 6 6 6 8 5 5 5 5 4 4 5 4 4 3 2 5 5 4 4 5 5 4 4
12 12 8 6 6 7 7 7 7 6 5 5 5 5 5 5 5 5 4 5 4 5 3 4 7 4 4 4 5 5 4 4
Wind_Direction
137 135 138 139 128 119 115 112 114 115 115 109 107 110 106 106 108 107 97 78 81 75 80 73 63 50 43 32 26 359 344 352
138 135 137 130 120 117 115 113 112 116 112 111 103 106 106 96 82 79 91 92 89 83 75 74 65 50 34 14 358 352 354 356
135 133 125 118 115 112 112 110 109 113 109 106 105 95 93 95 92 91 91 90 87 87 84 71 58 46 22 10 12 4 357 2
127 123 112 110 111 110 109 108 111 110 107 101 101 99 97 96 97 93 91 89 90 93 83 74 51 32 16 26 31 14 10 23
119 114 111 112 109 113 112 112 111 104 102 101 100 99 96 96 97 98 97 100 104 91 83 71 56 26 17 22 35 26 22 17
113 107 106 110 111 110 112 109 106 103 99 100 98 99 97 95 97 98 100 103 105 101 87 70 51 30 25 26 25 13 19 15
107 108 110 110 112 114 109 104 102 100 101 100 100 99 96 96 94 98 107 106 101 95 93 78 55 14 22 20 18 11 16 8
97 99 101 102 109 106 101 100 99 101 102 101 98 95 93 91 97 105 105 103 100 95 85 72 48 27 13 17 18 357 14 356
93 89 93 100 104 101 97 99 98 104 103 97 86 80 82 82 74 62 91 94 88 89 92 65 41 25 357 14 17 19 9 352
91 92 88 88 93 96 97 97 106 103 94 90 82 77 80 73 77 70 72 84 95 96 83 45 14 10 13 5 7 13 7 4
93 94 92 84 86 98 105 108 101 100 96 93 87 79 71 63 76 69 71 72 84 79 72 51 0 350 6 9 10 12 20 29
94 96 92 93 94 98 99 101 105 106 104 97 88 84 79 68 69 66 79 78 80 81 74 57 15 5 11 1 2 358 10 17
91 97 100 100 102 99 102 110 108 106 104 102 94 89 89 84 69 71 84 61 93 98 82 75 40 10 331 341 17 7 8 9
91 94 93 87 81 85 93 107 114 115 110 107 115 114 100 95 96 72 46 64 56 60 73 74 323 265 353 22 35 31 23 26
78 81 81 83 84 78 76 92 116 114 115 124 119 120 120 117 94 106 100 0 30 23 4 357 12 328 9 29 44 28 22 28
87 83 77 75 72 65 78 89 97 106 107 119 130 127 127 125 124 124 111 93 76 9 7 10 350 28 45 41 40 26 16 21
86 83 80 78 80 68 78 84 91 104 109 108 114 119 131 136 139 131 108 84 82 67 39 32 16 39 40 32 34 46 18 12
85 86 88 89 85 80 86 91 90 78 80 90 87 99 98 101 108 122 119 93 73 66 69 66 12 42 34 20 25 25 17 16
76 75 76 81 74 64 75 86 90 85 81 83 97 79 81 89 97 118 125 102 90 67 47 54 88 89 59 37 23 19 13 11
79 68 56 69 76 74 83 95 98 97 97 91 87 97 94 83 87 102 92 96 96 89 67 50 70 69 57 38 26 17 1 5